TimeCST,TemperatureF,Dew PointF,Humidity,Sea Level PressureIn,VisibilityMPH,Wind Direction,Wind SpeedMPH,Gust SpeedMPH,PrecipitationIn,Events,Conditions,WindDirDegrees,DateUTC
12:14 AM,35.6,28.4,75,29.72,10.0,Calm,Calm,-,N/A,,Clear,0,2013-11-14 06:14:00
12:33 AM,33.8,28.4,81,29.72,10.0,Calm,Calm,-,N/A,,Clear,0,2013-11-14 06:33:00
12:53 AM,33.8,28.4,81,29.71,10.0,Calm,Calm,-,N/A,,Clear,0,2013-11-14 06:53:00
1:13 AM,32.0,26.6,80,29.71,10.0,Calm,Calm,-,N/A,,Clear,0,2013-11-14 07:13:00
1:33 AM,32.0,26.6,80,29.71,10.0,Calm,Calm,-,N/A,,Clear,0,2013-11-14 07:33:00
1:53 AM,30.2,26.6,86,29.72,10.0,Calm,Calm,-,N/A,,Clear,0,2013-11-14 07:53:00
2:13 AM,32.0,26.6,80,29.72,10.0,Calm,Calm,-,N/A,,Clear,0,2013-11-14 08:13:00
2:33 AM,30.2,26.6,86,29.71,10.0,Calm,Calm,-,N/A,,Clear,0,2013-11-14 08:33:00
2:54 AM,30.2,26.6,86,29.71,10.0,Calm,Calm,-,N/A,,Clear,0,2013-11-14 08:54:00
3:13 AM,30.2,26.6,86,29.72,10.0,Calm,Calm,-,N/A,,Clear,0,2013-11-14 09:13:00
3:33 AM,30.2,26.6,86,29.72,10.0,WNW,3.5,-,N/A,,Clear,290,2013-11-14 09:33:00
3:53 AM,30.2,26.6,86,29.72,10.0,Calm,Calm,-,N/A,,Clear,0,2013-11-14 09:53:00
4:13 AM,30.2,26.6,86,29.72,10.0,Calm,Calm,-,N/A,,Scattered Clouds,0,2013-11-14 10:13:00
4:33 AM,30.2,26.6,86,29.72,10.0,Calm,Calm,-,N/A,,Scattered Clouds,0,2013-11-14 10:33:00
4:53 AM,30.2,26.6,86,29.73,10.0,Calm,Calm,-,N/A,,Clear,0,2013-11-14 10:53:00
5:13 AM,30.2,26.6,86,29.73,10.0,NW,3.5,-,N/A,,Clear,310,2013-11-14 11:13:00
5:33 AM,28.4,26.6,93,29.73,10.0,NW,3.5,-,N/A,,Clear,310,2013-11-14 11:33:00
5:53 AM,26.6,24.8,93,29.73,10.0,Calm,Calm,-,N/A,,Clear,0,2013-11-14 11:53:00
6:13 AM,28.4,26.6,93,29.73,10.0,NW,3.5,-,N/A,,Clear,310,2013-11-14 12:13:00
6:33 AM,28.4,26.6,93,29.72,10.0,Calm,Calm,-,N/A,,Mostly Cloudy,0,2013-11-14 12:33:00
6:53 AM,26.6,24.8,93,29.72,10.0,Calm,Calm,-,N/A,,Overcast,0,2013-11-14 12:53:00
7:13 AM,28.4,26.6,93,29.73,10.0,Calm,Calm,-,N/A,,Overcast,0,2013-11-14 13:13:00
7:33 AM,28.4,26.6,93,29.73,10.0,Calm,Calm,-,N/A,,Overcast,0,2013-11-14 13:33:00
7:53 AM,28.4,26.6,93,29.74,10.0,Calm,Calm,-,N/A,,Overcast,0,2013-11-14 13:53:00
8:13 AM,28.4,26.6,93,29.74,10.0,Calm,Calm,-,N/A,,Overcast,0,2013-11-14 14:13:00
8:33 AM,30.2,26.6,86,29.76,10.0,Calm,Calm,-,N/A,,Overcast,0,2013-11-14 14:33:00
8:54 AM,30.2,26.6,86,29.76,10.0,Calm,Calm,-,N/A,,Overcast,0,2013-11-14 14:54:00
9:13 AM,30.2,26.6,86,29.76,10.0,Calm,Calm,-,N/A,,Overcast,0,2013-11-14 15:13:00
9:33 AM,32.0,28.4,87,29.76,10.0,Calm,Calm,-,N/A,,Overcast,0,2013-11-14 15:33:00
9:54 AM,32.0,26.6,80,29.76,10.0,Calm,Calm,-,N/A,,Overcast,0,2013-11-14 15:54:00
10:13 AM,33.8,26.6,75,29.75,10.0,Calm,Calm,-,N/A,,Overcast,0,2013-11-14 16:13:00
10:33 AM,33.8,26.6,75,29.76,10.0,Calm,Calm,-,N/A,,Overcast,0,2013-11-14 16:33:00
10:53 AM,33.8,26.6,75,29.75,10.0,Calm,Calm,-,N/A,,Overcast,0,2013-11-14 16:53:00
11:13 AM,33.8,26.6,75,29.74,10.0,Calm,Calm,-,N/A,,Overcast,0,2013-11-14 17:13:00
11:33 AM,33.8,26.6,75,29.73,10.0,Calm,Calm,-,N/A,,Overcast,0,2013-11-14 17:33:00
11:53 AM,35.6,26.6,70,29.72,10.0,Calm,Calm,-,N/A,,Overcast,0,2013-11-14 17:53:00
12:13 PM,35.6,26.6,70,29.72,10.0,Calm,Calm,-,N/A,,Overcast,0,2013-11-14 18:13:00
12:33 PM,33.8,26.6,75,29.73,10.0,Calm,Calm,-,N/A,,Overcast,0,2013-11-14 18:33:00
12:53 PM,33.8,26.6,75,29.72,5.0,Calm,Calm,-,N/A,Snow,Light Snow,0,2013-11-14 18:53:00
1:13 PM,33.8,26.6,75,29.72,10.0,Calm,Calm,-,N/A,,Overcast,0,2013-11-14 19:13:00
1:33 PM,33.8,26.6,75,29.71,10.0,Calm,Calm,-,N/A,,Overcast,0,2013-11-14 19:33:00
1:53 PM,33.8,26.6,75,29.70,10.0,Calm,Calm,-,N/A,Rain,Light Rain,0,2013-11-14 19:53:00
2:13 PM,33.8,26.6,75,29.70,10.0,Calm,Calm,-,N/A,,Overcast,0,2013-11-14 20:13:00
2:33 PM,33.8,26.6,75,29.70,10.0,Calm,Calm,-,N/A,,Overcast,0,2013-11-14 20:33:00
2:53 PM,33.8,26.6,75,29.70,10.0,Calm,Calm,-,N/A,,Overcast,0,2013-11-14 20:53:00
3:13 PM,33.8,26.6,75,29.71,10.0,Calm,Calm,-,N/A,,Overcast,0,2013-11-14 21:13:00
3:33 PM,33.8,26.6,75,29.71,10.0,Calm,Calm,-,N/A,,Overcast,0,2013-11-14 21:33:00
3:53 PM,33.8,26.6,75,29.70,10.0,Calm,Calm,-,N/A,,Overcast,0,2013-11-14 21:53:00
4:13 PM,33.8,26.6,75,29.71,10.0,Calm,Calm,-,N/A,,Overcast,0,2013-11-14 22:13:00
4:33 PM,33.8,26.6,75,29.70,10.0,Calm,Calm,-,N/A,,Overcast,0,2013-11-14 22:33:00
4:53 PM,33.8,26.6,75,29.70,10.0,Calm,Calm,-,N/A,,Overcast,0,2013-11-14 22:53:00
5:13 PM,33.8,26.6,75,29.70,10.0,Calm,Calm,-,N/A,,Overcast,0,2013-11-14 23:13:00
5:33 PM,32.0,26.6,80,29.70,10.0,Calm,Calm,-,N/A,,Overcast,0,2013-11-14 23:33:00
5:53 PM,32.0,26.6,80,29.71,10.0,Calm,Calm,-,N/A,,Overcast,0,2013-11-14 23:53:00
6:13 PM,33.8,26.6,75,29.70,10.0,Calm,Calm,-,N/A,,Overcast,0,2013-11-15 00:13:00
6:33 PM,33.8,26.6,75,29.70,10.0,Calm,Calm,-,N/A,,Overcast,0,2013-11-15 00:33:00
6:53 PM,32.0,26.6,80,29.70,10.0,Calm,Calm,-,N/A,,Overcast,0,2013-11-15 00:53:00
7:13 PM,32.0,26.6,80,29.70,10.0,Calm,Calm,-,N/A,,Overcast,0,2013-11-15 01:13:00
7:33 PM,32.0,26.6,80,29.70,10.0,Calm,Calm,-,N/A,,Overcast,0,2013-11-15 01:33:00
7:53 PM,32.0,26.6,80,29.70,10.0,Calm,Calm,-,N/A,,Overcast,0,2013-11-15 01:53:00
8:13 PM,32.0,26.6,80,29.70,10.0,Calm,Calm,-,N/A,,Overcast,0,2013-11-15 02:13:00
8:33 PM,32.0,26.6,80,29.69,10.0,Calm,Calm,-,N/A,,Overcast,0,2013-11-15 02:33:00
8:53 PM,32.0,26.6,80,29.69,10.0,SSE,3.5,-,N/A,,Overcast,160,2013-11-15 02:53:00
9:13 PM,33.8,26.6,75,29.69,10.0,South,3.5,-,N/A,,Overcast,170,2013-11-15 03:13:00
9:33 PM,33.8,26.6,75,29.69,10.0,South,4.6,-,N/A,,Overcast,170,2013-11-15 03:33:00
9:53 PM,33.8,26.6,75,29.68,10.0,SSE,4.6,-,N/A,,Overcast,160,2013-11-15 03:53:00
10:13 PM,33.8,26.6,75,29.67,10.0,SSE,4.6,-,N/A,,Overcast,160,2013-11-15 04:13:00
10:33 PM,33.8,26.6,75,29.66,10.0,SSE,4.6,-,N/A,,Overcast,160,2013-11-15 04:33:00
10:53 PM,33.8,26.6,75,29.67,10.0,SSW,3.5,-,N/A,,Drizzle,200,2013-11-15 04:53:00
11:13 PM,33.8,28.4,81,29.68,4.0,SW,6.9,-,N/A,Snow,Light Snow,220,2013-11-15 05:13:00
11:33 PM,33.8,30.2,87,29.67,10.0,SSW,4.6,-,N/A,,Overcast,210,2013-11-15 05:33:00
11:53 PM,33.8,30.2,87,29.67,10.0,SSW,3.5,-,N/A,,Overcast,200,2013-11-15 05:53:00